Temp
-22 -22 -21 -18 -16 -15 -14 -15 -14 -13 -14 -14 -14 -13 -13 -13 -12 -12 -12 -12 -11 -11 -11 -10 -10 -10 -9 -9 -9 -9 -9 -9 -9 -10 -10 -10 -10 -10 -10 -11 -11 -11 -11 -11
-23 -22 -21 -21 -19 -18 -16 -15 -14 -14 -15 -14 -14 -13 -12 -14 -13 -12 -12 -12 -11 -11 -10 -10 -10 -10 -10 -10 -10 -9 -9 -9 -9 -9 -10 -10 -10 -10 -11 -11 -11 -12 -12 -11
-23 -23 -22 -21 -20 -19 -17 -14 -14 -14 -15 -14 -14 -13 -13 -13 -13 -12 -11 -12 -11 -11 -11 -10 -10 -10 -10 -10 -10 -10 -9 -10 -10 -10 -10 -10 -11 -11 -11 -12 -12 -12 -12 -12
-24 -24 -24 -22 -20 -18 -18 -16 -15 -15 -15 -15 -14 -13 -12 -14 -13 -12 -11 -11 -11 -11 -11 -11 -10 -11 -11 -11 -11 -10 -10 -10 -10 -10 -11 -11 -11 -11 -12 -12 -12 -12 -12 -12
-24 -23 -23 -22 -19 -18 -17 -17 -15 -15 -14 -15 -15 -14 -11 -13 -13 -11 -10 -11 -11 -11 -11 -11 -10 -11 -11 -11 -11 -11 -11 -11 -10 -11 -11 -11 -11 -12 -12 -12 -13 -12 -12 -12
-23 -23 -24 -21 -19 -17 -17 -16 -15 -16 -16 -16 -15 -14 -11 -11 -12 -12 -11 -11 -11 -11 -11 -11 -11 -11 -11 -12 -12 -11 -11 -11 -11 -11 -12 -12 -12 -12 -12 -12 -13 -13 -13 -13
-21 -20 -21 -21 -19 -18 -18 -16 -16 -16 -16 -15 -15 -14 -10 -12 -12 -12 -12 -11 -11 -11 -12 -12 -11 -11 -11 -11 -11 -11 -11 -11 -11 -12 -12 -12 -12 -12 -12 -13 -13 -13 -13 -13
-20 -19 -19 -20 -18 -17 -16 -17 -16 -16 -15 -15 -15 -13 -10 -11 -12 -12 -12 -12 -12 -11 -12 -12 -11 -12 -12 -12 -12 -12 -12 -12 -12 -12 -13 -13 -12 -13 -13 -13 -13 -13 -13 -13
-19 -19 -19 -18 -19 -17 -17 -15 -15 -15 -14 -15 -14 -12 -11 -11 -12 -12 -12 -12 -11 -11 -11 -12 -13 -12 -12 -12 -12 -12 -12 -12 -12 -12 -12 -13 -13 -13 -13 -13 -13 -13 -13 -13
-17 -18 -18 -18 -17 -17 -15 -15 -16 -15 -15 -15 -14 -13 -13 -13 -13 -13 -13 -12 -12 -11 -12 -12 -13 -12 -12 -12 -12 -12 -12 -12 -13 -12 -12 -12 -13 -13 -13 -13 -13 -13 -13 -13
-17 -17 -17 -17 -16 -15 -15 -15 -16 -16 -16 -15 -15 -14 -14 -13 -13 -12 -12 -12 -12 -12 -12 -12 -13 -13 -13 -13 -13 -12 -12 -12 -12 -12 -12 -12 -12 -12 -12 -13 -13 -13 -13 -13
-17 -17 -16 -17 -16 -16 -15 -15 -14 -16 -15 -14 -15 -14 -14 -14 -13 -12 -12 -12 -12 -11 -12 -12 -13 -14 -13 -13 -13 -12 -12 -12 -12 -12 -12 -12 -12 -12 -12 -12 -13 -13 -13 -13
-18 -17 -17 -16 -16 -16 -15 -15 -15 -15 -15 -15 -15 -14 -14 -13 -13 -12 -12 -12 -12 -12 -12 -12 -12 -12 -13 -12 -13 -13 -13 -12 -12 -12 -13 -13 -13 -13 -13 -13 -12 -13 -13 -13
-18 -17 -17 -17 -16 -16 -16 -16 -15 -15 -15 -15 -15 -14 -14 -14 -14 -12 -12 -12 -12 -12 -12 -12 -12 -12 -12 -12 -13 -13 -13 -13 -12 -12 -12 -13 -13 -12 -13 -13 -13 -13 -13 -13
-18 -18 -18 -17 -17 -17 -16 -16 -16 -15 -15 -15 -15 -15 -15 -15 -14 -13 -12 -12 -12 -13 -12 -12 -12 -12 -12 -12 -12 -12 -12 -12 -12 -12 -12 -13 -12 -13 -13 -13 -13 -12 -13 -14
-19 -18 -18 -17 -17 -17 -17 -17 -16 -16 -16 -15 -15 -15 -15 -15 -15 -14 -14 -13 -12 -12 -12 -12 -12 -12 -12 -12 -12 -12 -12 -12 -12 -12 -12 -12 -12 -12 -13 -13 -12 -12 -14 -16
-19 -19 -18 -17 -17 -17 -17 -17 -17 -16 -16 -16 -15 -15 -15 -15 -15 -15 -15 -14 -14 -13 -13 -12 -12 -12 -12 -12 -12 -12 -12 -13 -13 -13 -13 -12 -13 -13 -13 -13 -12 -13 -14 -16
-19 -19 -19 -18 -18 -17 -17 -17 -17 -17 -17 -16 -16 -16 -16 -15 -15 -15 -15 -15 -14 -14 -14 -14 -13 -13 -13 -13 -13 -12 -13 -13 -13 -13 -13 -13 -13 -13 -13 -13 -14 -14 -15 -15
-20 -20 -19 -19 -18 -18 -18 -18 -17 -17 -17 -17 -17 -17 -16 -16 -16 -15 -15 -15 -15 -14 -14 -15 -14 -14 -13 -13 -13 -13 -13 -13 -13 -13 -13 -13 -13 -14 -14 -14 -15 -15 -15 -15
-20 -20 -20 -19 -19 -19 -19 -18 -18 -17 -17 -17 -16 -17 -17 -17 -16 -16 -16 -15 -15 -15 -15 -15 -15 -15 -14 -14 -14 -14 -14 -14 -14 -14 -13 -13 -14 -14 -14 -15 -15 -15 -15 -15
-21 -20 -20 -20 -20 -19 -19 -19 -19 -18 -18 -18 -17 -18 -17 -17 -17 -17 -17 -16 -16 -16 -16 -15 -15 -15 -15 -15 -15 -14 -14 -14 -14 -14 -14 -14 -14 -15 -15 -15 -15 -16 -16 -16
-21 -21 -21 -20 -20 -20 -20 -19 -19 -20 -19 -19 -19 -18 -18 -17 -17 -17 -17 -17 -17 -17 -16 -16 -16 -16 -16 -15 -15 -15 -15 -15 -15 -15 -15 -15 -15 -15 -15 -16 -16 -16 -16 -16
-22 -22 -21 -21 -21 -20 -20 -20 -20 -20 -20 -20 -20 -20 -19 -19 -18 -18 -17 -17 -17 -16 -16 -16 -16 -16 -16 -16 -16 -16 -16 -16 -15 -15 -16 -15 -16 -16 -16 -16 -16 -16 -16 -16
-22 -22 -22 -22 -21 -21 -21 -21 -21 -20 -20 -20 -20 -19 -19 -19 -19 -19 -19 -19 -18 -18 -17 -17 -16 -16 -16 -16 -16 -16 -16 -16 -16 -16 -16 -16 -16 -16 -16 -16 -16 -16 -17 -18
-23 -22 -22 -22 -22 -22 -21 -21 -21 -21 -20 -20 -20 -20 -20 -20 -19 -19 -19 -19 -19 -19 -19 -18 -18 -17 -16 -16 -16 -16 -16 -16 -16 -16 -16 -16 -16 -16 -16 -17 -17 -17 -18 -18
-23 -23 -23 -22 -22 -22 -22 -21 -21 -21 -21 -21 -21 -20 -20 -20 -19 -19 -19 -19 -19 -19 -18 -18 -18 -19 -18 -18 -18 -17 -17 -17 -16 -16 -16 -16 -16 -16 -17 -17 -17 -17 -18 -19
Height
5592 5592 5601 5624 5639 5659 5669 5679 5690 5702 5707 5713 5720 5730 5747 5748 5755 5763 5770 5777 5782 5790 5794 5797 5801 5804 5807 5811 5815 5819 5822 5824 5827 5830 5831 5833 5835 5835 5837 5839 5839 5838 5837 5835
5574 5574 5601 5613 5625 5641 5656 5669 5681 5688 5696 5701 5710 5719 5736 5740 5746 5756 5764 5772 5778 5783 5787 5793 5797 5800 5805 5807 5810 5814 5817 5820 5822 5825 5827 5830 5831 5832 5833 5834 5834 5833 5832 5830
5564 5577 5588 5594 5608 5626 5644 5659 5672 5683 5691 5694 5701 5709 5722 5731 5736 5746 5753 5763 5769 5775 5782 5787 5792 5796 5800 5804 5808 5810 5812 5815 5818 5820 5823 5825 5826 5827 5827 5828 5828 5827 5826 5825
5553 5563 5569 5579 5596 5622 5638 5652 5665 5675 5680 5684 5692 5698 5711 5722 5727 5737 5747 5755 5762 5770 5774 5777 5782 5788 5795 5800 5802 5805 5809 5812 5815 5817 5819 5820 5821 5822 5823 5822 5822 5821 5820 5819
5551 5557 5566 5571 5596 5619 5636 5650 5663 5670 5676 5679 5684 5688 5706 5711 5717 5729 5739 5748 5756 5763 5768 5773 5780 5786 5790 5792 5796 5800 5803 5806 5809 5812 5813 5814 5816 5816 5816 5816 5815 5815 5814 5813
5551 5554 5561 5578 5602 5617 5635 5647 5657 5661 5665 5668 5678 5681 5691 5702 5711 5724 5731 5739 5748 5756 5761 5769 5775 5778 5782 5785 5789 5794 5798 5802 5804 5807 5808 5809 5810 5809 5810 5809 5809 5808 5807 5805
5561 5564 5571 5583 5598 5613 5628 5641 5646 5653 5657 5663 5672 5676 5689 5698 5706 5720 5726 5733 5741 5750 5754 5762 5768 5772 5777 5781 5786 5789 5793 5797 5798 5799 5802 5802 5803 5803 5803 5802 5801 5801 5800 5797
5565 5570 5570 5582 5593 5611 5621 5633 5642 5649 5656 5661 5670 5666 5679 5693 5701 5709 5714 5722 5729 5742 5748 5754 5761 5766 5771 5776 5779 5782 5786 5790 5791 5791 5794 5794 5795 5795 5795 5793 5793 5793 5792 5789
5571 5574 5577 5588 5601 5613 5623 5632 5642 5651 5655 5657 5664 5665 5674 5686 5693 5699 5707 5712 5716 5726 5735 5742 5750 5757 5764 5767 5771 5775 5779 5780 5782 5784 5785 5786 5786 5787 5786 5784 5784 5784 5784 5781
5577 5584 5589 5598 5607 5615 5624 5631 5636 5642 5647 5652 5658 5660 5665 5674 5681 5688 5696 5704 5710 5720 5727 5733 5740 5748 5755 5760 5763 5766 5769 5772 5774 5774 5775 5775 5777 5778 5776 5773 5775 5775 5774 5772
5582 5588 5595 5601 5606 5615 5621 5625 5632 5640 5643 5647 5652 5655 5659 5667 5675 5680 5688 5694 5698 5708 5715 5723 5733 5740 5745 5749 5751 5756 5759 5762 5764 5766 5766 5767 5767 5767 5768 5767 5766 5764 5762 5761
5585 5589 5594 5600 5606 5613 5616 5623 5630 5634 5638 5643 5647 5650 5653 5661 5668 5674 5680 5686 5692 5699 5706 5711 5719 5728 5732 5737 5742 5746 5747 5750 5753 5755 5756 5757 5757 5757 5759 5759 5757 5756 5753 5751
5587 5592 5594 5599 5605 5608 5611 5617 5622 5629 5633 5637 5643 5645 5647 5653 5661 5664 5670 5677 5682 5689 5697 5703 5707 5714 5721 5725 5729 5732 5735 5738 5741 5742 5745 5746 5748 5748 5750 5748 5745 5745 5743 5740
5586 5590 5592 5597 5602 5604 5607 5611 5616 5624 5629 5633 5638 5640 5643 5646 5650 5656 5662 5668 5674 5681 5687 5692 5697 5702 5710 5715 5718 5721 5723 5725 5728 5730 5733 5734 5736 5737 5736 5736 5735 5732 5729 5727
5584 5588 5593 5594 5598 5601 5603 5606 5612 5618 5623 5627 5632 5635 5639 5640 5643 5647 5653 5660 5666 5672 5677 5683 5688 5692 5698 5703 5707 5711 5713 5714 5716 5718 5721 5722 5724 5723 5724 5724 5722 5718 5715 5714
5582 5586 5590 5594 5596 5599 5601 5605 5609 5614 5618 5621 5625 5629 5631 5634 5638 5641 5645 5650 5656 5662 5668 5672 5677 5681 5686 5691 5695 5698 5700 5702 5704 5707 5710 5711 5712 5712 5711 5710 5708 5704 5702 5701
5582 5583 5587 5591 5594 5597 5600 5603 5608 5611 5614 5617 5619 5622 5625 5628 5632 5637 5640 5645 5649 5654 5658 5662 5666 5670 5673 5677 5681 5684 5687 5690 5694 5696 5696 5697 5698 5698 5698 5696 5695 5694 5692 5690
5582 5583 5584 5587 5591 5595 5597 5600 5604 5608 5610 5611 5614 5617 5620 5623 5627 5631 5635 5639 5643 5647 5651 5655 5658 5660 5663 5666 5670 5673 5676 5679 5680 5682 5684 5684 5685 5685 5684 5683 5682 5679 5678 5678
5581 5582 5583 5585 5588 5592 5594 5596 5599 5603 5607 5609 5611 5613 5615 5618 5621 5625 5629 5633 5636 5639 5642 5646 5648 5650 5652 5654 5657 5661 5663 5666 5668 5669 5670 5670 5669 5671 5671 5670 5669 5668 5667 5666
5579 5581 5583 5584 5586 5589 5591 5592 5593 5597 5602 5605 5607 5609 5611 5613 5616 5619 5622 5625 5628 5631 5633 5636 5638 5641 5642 5644 5647 5649 5650 5652 5653 5654 5656 5658 5658 5659 5659 5658 5656 5655 5655 5653
5576 5579 5581 5582 5583 5585 5587 5589 5591 5594 5598 5598 5601 5604 5606 5609 5612 5613 5616 5618 5620 5622 5624 5626 5627 5629 5631 5633 5636 5638 5639 5639 5640 5641 5645 5646 5646 5646 5645 5645 5644 5643 5642 5641
5574 5576 5578 5580 5582 5585 5586 5587 5591 5592 5592 5593 5595 5598 5600 5603 5605 5606 5608 5609 5611 5613 5614 5616 5618 5618 5620 5621 5624 5625 5627 5624 5627 5628 5631 5632 5632 5632 5632 5632 5631 5631 5629 5628
5571 5573 5575 5578 5579 5580 5583 5585 5587 5589 5590 5591 5593 5594 5595 5597 5598 5600 5600 5601 5602 5603 5603 5605 5606 5607 5609 5610 5612 5612 5612 5612 5614 5616 5617 5617 5618 5617 5618 5618 5617 5617 5615 5615
5565 5568 5571 5573 5575 5576 5578 5580 5583 5584 5586 5588 5589 5590 5590 5591 5592 5593 5593 5593 5593 5593 5593 5594 5595 5595 5596 5598 5599 5600 5600 5601 5602 5604 5604 5603 5604 5604 5604 5604 5603 5603 5602 5601
5560 5563 5566 5568 5569 5572 5573 5574 5575 5577 5579 5581 5582 5582 5582 5583 5584 5584 5584 5584 5584 5583 5583 5583 5583 5584 5584 5583 5584 5585 5586 5587 5587 5588 5589 5589 5590 5591 5590 5590 5590 5590 5589 5589
5555 5556 5558 5559 5562 5564 5566 5567 5570 5572 5573 5574 5574 5574 5574 5574 5574 5573 5572 5572 5571 5570 5570 5570 5570 5570 5569 5569 5569 5569 5570 5570 5572 5573 5574 5574 5574 5575 5576 5576 5577 5577 5575 5575
Wind_Speed
58 61 61 68 77 73 74 65 59 53 59 59 61 64 61 56 54 51 48 44 42 37 35 34 30 30 30 30 29 28 27 25 24 22 23 22 22 21 19 17 18 18 21 20
51 60 50 52 77 63 62 53 48 60 59 58 53 63 62 59 58 55 50 45 42 41 41 37 31 28 27 29 30 28 26 25 24 24 24 22 21 22 20 19 20 19 21 20
41 44 48 53 86 75 69 70 53 50 51 58 55 54 67 64 63 58 56 49 46 45 42 39 34 29 28 26 26 28 28 27 26 25 24 22 22 23 22 21 21 21 21 21
33 40 52 54 86 74 62 67 67 55 54 55 56 61 60 71 66 62 60 54 50 47 46 45 41 35 29 27 29 30 28 26 25 25 23 23 24 24 23 22 22 24 24 23
23 37 45 58 75 69 43 46 50 53 56 52 57 63 58 59 73 68 65 57 51 49 47 44 40 34 31 33 33 32 30 27 27 26 25 26 26 26 25 25 24 26 27 27
17 30 34 63 69 45 58 47 36 35 47 55 48 57 58 55 64 69 66 61 54 51 48 42 38 39 38 38 36 33 31 30 29 28 27 27 29 29 28 29 27 28 30 30
8 15 20 59 71 55 54 46 45 34 38 53 45 55 55 51 52 54 60 66 59 53 48 41 40 39 39 38 33 32 32 30 29 30 28 30 30 32 31 32 31 31 32 35
14 22 19 68 58 47 29 51 64 48 46 43 43 58 56 49 47 49 47 48 62 58 51 43 41 40 39 37 35 34 33 32 33 33 30 33 33 34 34 35 36 35 35 38
8 17 41 58 55 37 47 37 40 50 48 43 38 46 50 44 47 49 48 41 56 66 58 53 50 44 39 40 39 37 35 35 36 34 37 35 35 36 37 39 38 35 37 40
20 26 44 43 41 41 44 48 43 47 26 34 41 39 41 38 40 46 51 40 44 59 68 61 53 48 42 41 40 39 40 40 40 40 41 37 35 39 44 44 38 38 41 43
13 17 35 36 33 39 45 48 42 48 48 43 43 43 42 36 43 46 46 45 47 49 51 47 49 45 43 44 43 44 43 43 43 41 37 36 39 44 45 46 42 43 44 45
6 16 16 35 33 33 42 48 53 51 46 46 46 46 41 37 38 50 47 43 47 46 49 45 49 52 55 53 52 50 51 49 50 42 41 38 42 46 49 48 49 48 51 53
13 8 11 14 38 39 34 35 40 34 41 44 44 46 46 43 37 45 50 48 46 51 45 46 49 50 49 50 51 53 53 53 50 47 45 43 43 45 48 54 49 51 56 54
15 10 12 14 14 21 21 36 36 36 31 37 37 30 26 26 27 40 47 46 44 52 47 50 46 51 53 50 50 55 59 50 52 52 52 45 45 46 47 50 54 57 56 50
19 20 17 14 11 10 9 16 28 33 23 26 30 29 27 24 20 22 39 47 49 42 46 46 43 46 52 52 52 53 50 51 51 50 53 50 48 48 51 55 59 64 52 50
9 20 22 20 19 14 8 3 13 22 20 22 24 21 20 21 25 24 22 27 45 57 52 49 50 51 49 49 56 58 54 52 50 50 54 53 55 56 55 57 66 64 53 46
7 9 16 23 23 25 25 23 11 14 20 21 25 24 22 19 21 30 31 34 35 37 41 46 49 47 43 47 53 58 54 54 53 52 55 58 59 59 60 65 61 61 59 51
5 8 10 11 14 19 20 18 16 17 14 18 24 27 26 24 21 20 28 33 31 33 36 38 42 45 46 47 48 49 51 55 59 60 62 63 61 61 60 61 62 65 59 58
5 5 5 8 10 13 16 20 22 22 19 18 15 19 23 23 23 24 24 25 29 38 38 40 43 44 45 46 47 49 51 53 55 57 59 59 58 59 59 50 46 48 51 52
9 6 6 6 7 10 15 18 20 23 22 23 25 19 18 19 22 25 26 28 28 30 34 43 44 44 46 49 51 53 55 55 58 60 59 55 53 54 47 46 48 52 55 57
13 11 9 8 8 8 11 13 15 17 16 18 21 23 23 23 22 23 22 24 26 27 31 35 38 42 47 49 51 54 55 55 55 55 55 52 51 49 48 50 48 47 48 49
14 14 14 13 11 11 9 8 8 9 10 12 15 17 20 22 23 24 27 28 29 29 30 33 36 38 41 43 46 49 51 53 53 53 53 50 51 53 52 52 51 48 49 50
16 17 17 17 16 14 14 12 11 11 10 10 10 13 15 17 20 25 29 32 34 36 37 37 37 37 37 39 43 46 50 51 53 53 54 53 54 56 55 54 55 53 51 50
18 19 19 19 19 18 17 16 15 15 15 15 16 18 20 20 21 23 24 26 31 36 40 43 44 44 44 44 44 44 45 46 48 53 55 58 57 57 59 60 58 53 51 48
21 20 21 23 23 21 20 20 20 21 22 22 22 23 25 27 29 30 32 33 34 34 34 37 42 47 50 49 50 51 51 50 50 51 51 52 52 49 49 50 50 51 48 48
4 11 19 23 24 23 22 22 23 24 24 25 28 31 33 35 38 40 41 42 43 45 45 45 45 45 45 48 50 52 53 54 55 55 56 56 56 56 53 53 55 54 50 51
Wind_Direction
241 236 235 225 221 221 226 223 227 223 216 219 225 218 204 218 216 215 219 216 218 220 217 213 211 210 208 208 211 213 215 217 222 226 231 235 240 246 254 268 279 288 297 298
242 233 229 217 204 198 209 211 222 217 220 215 217 212 205 214 219 214 221 220 219 218 219 214 209 210 211 211 211 210 212 216 219 224 231 238 244 253 263 271 277 289 297 295
249 237 226 216 199 194 202 209 210 216 217 218 217 219 208 211 218 214 217 218 217 218 218 219 209 211 213 215 218 216 213 217 222 228 234 238 244 257 265 271 280 289 293 291
239 224 216 216 196 191 202 215 219 219 219 217 220 220 210 211 216 216 215 217 218 220 217 216 211 208 211 214 220 220 220 223 229 235 237 243 249 259 266 274 280 286 289 290
253 218 221 209 187 185 192 197 211 217 221 223 226 230 210 214 214 216 214 217 218 221 221 219 217 213 213 218 220 222 223 227 233 239 243 248 256 260 266 272 276 283 287 291
184 184 203 190 174 187 195 198 203 207 220 224 223 233 222 218 221 218 219 217 217 221 225 223 220 218 215 221 224 229 232 236 240 244 248 253 256 262 265 271 276 281 285 290
149 161 167 187 176 184 190 209 215 218 223 217 218 228 212 217 221 222 226 226 220 221 224 225 225 226 226 227 230 235 241 243 248 250 247 252 256 264 268 273 276 280 283 290
159 198 174 184 180 177 171 213 215 219 219 223 227 229 219 219 222 219 221 227 226 221 223 225 230 231 230 230 232 235 240 245 247 249 250 253 258 262 267 271 276 282 287 288
161 198 182 176 183 184 190 201 215 223 228 226 214 228 231 226 226 227 230 227 222 216 218 226 234 232 232 233 234 237 239 240 247 253 254 254 259 263 265 269 275 280 284 287
150 173 169 174 185 195 201 215 210 205 209 225 220 231 240 232 230 222 228 231 230 223 225 226 225 225 228 232 233 234 235 242 248 255 258 247 253 259 263 265 270 275 281 283
138 160 189 189 200 209 214 218 224 228 234 234 236 241 243 239 224 224 222 227 222 221 226 226 219 224 229 230 236 234 236 243 246 256 259 254 255 258 267 269 271 274 276 278
161 188 187 202 204 218 222 223 232 232 228 233 233 240 243 237 228 228 228 224 224 226 228 225 218 217 221 230 235 237 240 245 250 255 254 253 262 264 267 272 267 270 274 278
228 195 163 164 214 218 206 207 217 223 229 230 234 245 246 251 243 233 229 229 229 224 224 226 230 231 230 230 228 230 239 243 243 247 254 256 258 264 268 270 265 273 273 271
213 188 180 219 196 201 209 221 224 224 222 225 234 233 236 244 244 234 227 225 229 228 230 230 233 234 227 230 226 231 237 242 244 247 252 255 263 268 268 267 268 271 265 271
224 236 236 199 204 155 188 200 211 214 208 212 219 232 234 237 245 233 230 228 225 219 224 226 225 233 234 237 231 236 236 241 248 251 251 252 259 267 270 269 265 262 263 265
209 221 221 224 248 250 219 152 209 211 213 215 215 211 212 210 217 224 237 230 235 233 230 232 238 241 240 243 240 237 244 247 251 253 251 253 261 266 272 269 270 264 261 269
211 215 225 231 239 249 265 272 249 237 233 233 228 231 231 225 222 222 228 230 225 225 237 239 238 238 238 236 237 243 244 246 249 253 252 258 262 266 263 266 271 272 270 265
230 205 215 224 235 243 247 245 250 241 232 223 231 235 241 241 239 236 233 232 235 242 239 239 239 237 236 236 238 241 242 243 246 249 252 255 259 258 263 268 266 264 263 264
235 224 200 209 227 234 230 228 225 232 239 229 229 233 234 236 238 238 242 244 240 229 235 242 240 240 242 242 242 243 244 246 247 250 253 256 258 262 266 265 268 270 271 273
211 204 210 218 213 224 223 226 226 231 236 241 244 254 240 234 237 241 243 243 245 247 243 237 236 242 243 242 242 243 245 246 248 250 253 256 260 264 263 265 269 273 273 273
220 213 201 202 209 216 220 229 233 234 243 252 258 263 263 263 258 250 244 246 245 244 247 251 249 248 247 246 247 247 249 252 253 255 255 257 257 260 260 266 268 269 271 271
228 219 216 208 200 214 223 242 242 236 236 244 247 255 259 259 258 255 254 254 252 249 248 249 252 256 257 255 253 253 253 253 253 254 255 259 259 261 265 266 267 269 270 270
240 234 227 220 225 220 221 230 243 243 249 262 278 283 273 271 268 262 259 257 255 255 254 255 257 254 253 255 257 258 256 256 255 255 255 257 259 261 264 267 266 267 271 273
240 239 237 234 231 233 234 238 243 246 250 256 266 274 279 281 281 280 279 274 270 267 262 257 255 256 258 258 256 255 257 260 260 257 256 256 259 261 261 262 264 266 267 264
246 245 243 245 248 248 249 250 250 252 256 264 270 271 274 275 272 272 272 272 272 271 270 270 268 262 258 256 256 257 258 258 258 258 256 255 255 255 258 259 261 260 256 257
270 246 244 243 250 252 250 252 257 259 263 267 270 272 273 274 275 276 275 273 270 268 268 268 265 264 264 262 257 255 254 255 255 257 260 259 258 257 255 256 256 259 260 262